GFSGL_925_spd_000.txt.gz
Wind_Speed
24 26 29 33 35 37 42 43 43 41 41 42 41 46 50 50 48 46 44 41 39 36 33 30 28 25 22 20 19 18 18 18 9 6 12 13 18 18 24 25 26 26 28
35 30 31 34 35 36 42 45 44 44 42 42 42 43 46 51 53 51 49 46 44 42 37 34 31 27 25 23 21 20 20 19 15 9 7 10 14 18 21 22 19 19 20
30 33 36 34 36 41 44 46 45 45 46 44 45 46 49 51 53 54 53 50 48 46 42 39 35 32 30 28 26 23 20 16 18 13 8 9 15 15 19 17 17 20 19
32 28 32 32 33 37 40 41 43 44 44 46 48 48 50 51 53 54 52 51 49 48 44 41 38 36 33 30 26 23 20 19 16 13 10 12 10 12 12 16 18 19 23
30 34 33 28 32 33 36 39 41 43 45 45 43 46 48 50 51 51 51 52 50 46 45 41 39 34 32 27 28 27 23 20 17 11 7 6 5 9 11 16 20 24 23
32 31 33 34 28 33 36 36 39 42 41 42 44 45 45 47 48 52 53 50 48 46 44 42 38 34 32 30 27 25 23 22 18 11 6 5 5 9 12 16 18 22 9
31 31 36 38 37 32 30 33 37 38 37 40 41 43 45 47 41 42 44 47 46 43 43 42 38 36 33 28 23 21 21 19 14 8 10 7 5 12 16 15 19 20 19
27 27 32 37 37 35 29 27 31 31 35 36 38 41 41 48 41 42 43 42 42 45 47 47 44 41 39 36 32 27 27 24 20 19 15 10 8 9 11 14 19 27 29
28 31 35 39 39 35 27 26 28 27 28 31 31 35 40 38 37 42 41 35 36 39 42 43 41 40 36 32 32 32 26 22 17 12 10 9 9 11 10 16 21 19 16
28 31 33 37 37 33 28 24 25 26 26 25 25 28 32 31 35 43 43 36 33 32 32 35 40 39 35 33 34 32 28 23 16 12 13 13 9 12 12 11 13 16 15
31 34 33 32 36 33 28 23 24 24 21 20 20 22 27 32 36 41 42 32 31 30 30 31 35 29 31 32 28 28 26 16 15 14 13 11 11 10 11 12 11 13 18
32 32 31 34 31 34 25 25 21 23 20 19 19 18 23 27 31 38 42 32 32 36 34 32 33 31 30 29 27 22 18 19 18 14 13 12 8 8 11 13 15 19 24
34 34 33 33 31 30 25 22 21 20 17 17 18 19 18 21 27 31 40 34 28 26 29 30 32 33 29 27 25 23 22 20 16 14 13 7 6 9 12 16 20 24 26
33 35 34 32 30 28 26 24 22 20 21 20 20 20 20 24 27 29 34 37 28 21 23 25 28 29 26 26 23 22 22 20 16 13 8 4 6 11 15 17 21 23 23
34 34 33 31 30 30 28 26 25 28 29 24 24 22 23 22 31 35 36 33 35 32 30 30 27 25 23 24 23 20 16 15 12 9 6 3 6 11 17 17 20 22 19
34 32 29 28 28 28 27 25 27 30 27 32 27 29 28 27 25 33 38 35 38 39 32 29 28 28 26 25 22 20 16 14 10 8 5 3 6 11 17 19 20 19 19
35 35 32 29 27 25 25 21 12 18 29 30 32 28 28 29 31 40 41 37 35 37 31 27 25 26 24 23 23 23 17 15 12 8 5 3 6 12 17 18 20 18 20
35 36 34 30 28 27 26 23 20 15 9 19 31 29 30 27 31 35 43 43 37 34 25 28 25 25 24 25 26 25 22 19 13 9 6 5 8 13 18 20 19 20 21
34 31 29 28 27 27 28 23 21 18 16 16 16 24 28 28 26 32 41 37 33 30 33 27 27 29 29 29 29 25 21 17 13 9 5 5 8 13 18 22 21 22 25
32 33 32 29 28 27 26 21 16 15 15 16 16 19 21 25 25 28 36 31 26 29 27 29 30 32 33 31 27 23 19 15 11 7 5 5 10 14 17 21 22 22 23
29 29 30 28 25 24 23 20 17 16 15 16 17 20 25 28 23 25 29 23 26 27 28 31 35 34 31 27 24 21 17 13 10 7 4 7 11 14 18 22 24 26 24
29 28 26 25 23 21 19 16 14 14 14 14 13 18 28 24 19 19 22 24 28 31 31 33 32 30 27 24 20 17 14 11 8 6 7 9 12 15 19 23 25 23 23
23 22 21 22 21 15 11 10 11 13 12 13 15 19 17 20 20 22 26 29 29 27 27 27 27 25 21 18 14 11 10 8 6 7 7 10 12 17 21 24 24 24 23
18 14 9 4 3 5 5 7 8 10 13 11 16 18 19 20 25 26 28 28 28 26 24 23 21 19 17 15 12 11 10 8 7 8 9 11 13 18 24 25 23 24 25
18 15 14 12 11 10 11 12 12 15 17 17 18 20 20 22 28 28 29 28 26 23 21 18 16 14 12 10 10 10 9 9 10 9 10 11 16 20 24 27 26 24 26
19 18 17 16 16 15 14 14 15 15 16 17 18 20 22 25 28 30 28 25 22 19 16 14 11 9 8 7 7 8 10 10 9 9 9 14 19 21 25 27 26 25 26

GFSGL_925_spd_003.txt.gz
Wind_Speed
36 32 27 23 27 31 33 32 34 36 36 38 39 44 50 53 52 51 50 51 50 48 44 41 40 35 33 30 28 25 22 19 8 6 12 13 10 9 9 11 11 12 13
38 37 35 32 26 26 30 33 33 36 39 39 40 42 46 49 55 56 52 52 53 51 49 45 42 38 35 33 32 30 27 23 15 11 11 9 10 8 9 11 12 14 15
34 36 38 40 35 28 26 29 32 35 38 41 42 43 45 48 49 54 55 51 51 51 51 51 48 45 41 39 36 33 30 28 24 14 10 10 9 10 10 10 12 15 17
31 27 25 32 37 39 36 30 29 34 35 38 43 44 47 47 47 49 48 49 53 52 51 53 52 52 49 46 41 37 33 27 23 17 11 9 10 8 8 8 11 11 14
28 27 27 28 33 37 37 36 30 29 35 37 39 42 44 48 50 47 46 47 49 46 50 52 54 56 53 48 46 42 37 32 22 17 12 9 9 9 9 4 7 10 14
23 25 28 29 33 33 37 38 35 31 29 35 39 39 41 45 43 50 52 46 43 41 41 46 46 52 51 48 45 40 40 41 32 23 19 17 16 13 9 9 8 6 4
29 27 29 33 32 37 39 39 36 32 28 31 35 37 39 42 39 46 49 47 45 44 43 41 39 45 47 41 33 34 34 35 34 35 26 19 17 16 13 11 9 7 8
25 28 28 31 34 37 40 40 41 34 30 28 29 33 35 37 35 38 42 40 39 42 44 47 47 45 49 46 40 34 34 33 31 32 26 20 16 15 14 10 8 9 11
23 24 28 32 35 30 29 34 41 40 33 26 26 27 31 33 32 35 38 39 36 37 38 40 43 43 48 41 42 35 30 32 27 25 22 17 16 15 12 13 9 3 1
24 26 28 33 34 33 33 32 32 36 36 27 29 28 30 33 30 31 38 36 33 36 38 39 44 43 44 44 44 40 34 34 34 29 22 19 19 21 18 11 8 6 4
27 31 32 30 31 33 34 36 35 35 31 31 29 29 31 33 30 29 37 39 32 29 26 29 34 38 42 43 37 41 38 35 34 33 26 27 24 20 16 12 8 7 7
30 32 33 35 34 34 33 36 34 32 28 25 23 24 29 32 31 29 34 42 32 30 31 30 32 38 39 43 39 34 29 29 31 29 28 24 19 17 14 12 9 7 7
30 35 38 37 36 35 32 34 31 27 24 23 21 21 24 22 27 28 31 38 33 28 25 24 27 38 37 38 36 30 31 32 33 28 23 18 16 17 14 11 8 7 9
37 40 38 36 37 35 33 32 30 28 25 23 21 20 22 21 23 26 29 33 34 31 23 22 25 33 33 34 37 32 32 35 34 25 19 16 14 13 12 9 6 4 5
37 37 36 34 34 34 33 32 31 32 31 26 27 25 23 22 29 29 30 32 33 31 29 27 25 28 27 26 25 26 32 32 28 22 20 18 14 12 9 7 3 1 2
36 33 31 31 31 31 32 35 36 40 40 39 37 34 27 33 24 29 33 35 32 38 33 31 28 33 31 30 28 24 29 30 25 24 21 19 15 12 8 6 2 2 5
35 35 33 31 30 28 28 27 21 32 30 33 36 36 34 27 27 27 32 36 37 41 27 30 31 32 29 29 29 30 25 29 30 26 23 22 18 13 10 5 2 4 6
35 36 34 32 30 29 28 27 26 23 15 19 24 30 32 31 26 25 28 34 34 40 27 28 28 30 30 32 30 29 28 29 27 25 23 22 19 14 9 6 3 5 7
33 31 31 31 30 30 28 29 27 26 25 21 16 19 23 27 28 24 27 31 27 30 23 21 26 29 27 27 28 25 27 26 24 25 25 22 17 13 9 5 3 7 9
31 32 32 29 28 27 26 24 23 23 23 17 14 14 15 18 20 23 25 26 20 25 25 23 25 25 26 28 29 30 28 29 28 24 20 17 15 10 7 4 4 6 9
28 29 29 28 26 26 24 23 22 21 17 12 13 16 17 18 18 19 19 21 16 27 27 28 29 27 28 31 33 32 32 30 27 23 19 16 13 10 7 5 6 9 13
27 26 25 24 24 22 22 21 21 20 12 10 12 17 18 18 14 17 13 16 22 26 35 35 29 30 32 35 36 33 30 28 25 21 18 14 11 9 7 5 7 10 13
23 23 23 21 18 19 18 19 14 10 11 11 10 10 7 7 20 21 23 25 28 30 32 31 28 27 29 30 29 29 28 25 22 19 16 13 10 9 7 7 10 13 15
22 21 19 18 16 14 11 8 6 6 7 7 9 10 12 13 21 22 23 24 26 27 26 28 30 30 28 26 24 21 19 18 17 15 13 11 8 7 8 11 14 17 19
21 21 20 18 17 16 14 14 14 14 13 11 11 12 13 16 20 24 25 28 31 33 33 32 29 26 23 21 19 18 17 16 14 13 11 8 7 8 12 15 18 19 19
21 21 20 20 19 18 16 15 15 15 15 14 15 16 17 19 21 25 30 33 34 33 31 27 24 22 19 17 15 14 15 15 13 10 8 8 10 12 14 17 20 22 21

GFSGL_925_spd_006.txt.gz
Wind_Speed
26 25 23 25 26 25 23 19 16 17 18 21 25 25 28 32 34 37 39 40 43 37 37 37 38 37 37 33 28 25 21 16 8 8 13 15 19 17 16 14 11 9 7
23 22 23 24 25 27 26 26 25 22 20 21 22 24 28 33 33 36 38 39 41 41 36 34 34 35 35 35 34 31 28 23 13 13 16 17 16 18 16 14 13 12 8
21 21 23 26 29 30 32 30 31 26 23 22 24 25 26 31 36 38 39 38 39 42 43 46 41 38 38 33 33 32 30 26 20 13 12 15 12 17 15 14 14 11 10
19 19 20 21 24 28 35 38 36 34 27 22 22 28 27 30 34 35 37 40 40 40 38 42 47 50 47 42 39 34 33 30 24 18 15 16 16 13 15 15 15 12 9
19 19 19 19 22 26 30 35 38 38 35 30 25 26 29 30 34 35 35 37 38 37 42 43 47 49 53 55 46 40 36 30 25 21 17 15 18 15 21 16 14 9 7
24 23 21 18 19 25 30 31 33 35 35 35 30 26 29 30 33 36 36 35 36 38 41 40 42 44 50 53 54 48 54 44 33 27 23 21 23 21 18 16 11 6 4
26 29 29 26 24 24 28 28 27 29 29 31 31 26 28 32 34 34 37 38 35 38 40 39 38 41 45 46 43 38 40 44 46 44 32 29 23 25 21 17 13 10 6
22 23 23 24 28 28 27 28 28 28 28 28 30 31 30 31 29 32 34 39 37 37 40 42 42 41 44 47 43 38 37 39 38 33 31 30 25 27 22 17 16 12 7
24 25 24 23 27 32 34 33 31 30 32 33 32 31 30 33 27 30 32 32 35 38 37 40 41 42 43 45 44 42 37 35 32 27 23 20 20 21 22 19 17 14 7
26 27 27 26 27 30 32 35 39 35 35 33 35 32 32 37 32 29 28 30 31 34 34 36 43 41 38 46 46 41 37 38 35 29 24 22 23 22 21 19 17 17 10
27 28 30 31 32 33 34 36 36 38 38 40 39 38 34 34 35 30 27 32 32 31 32 32 35 40 38 42 45 41 44 35 36 37 31 27 27 23 24 20 16 16 14
29 32 35 35 35 36 36 36 36 35 36 37 37 38 35 33 33 32 32 33 37 35 32 30 31 35 40 40 44 37 34 34 35 32 31 30 28 25 21 19 17 14 12
36 37 37 36 35 35 35 35 32 32 32 33 31 31 33 31 29 30 33 33 35 41 33 33 28 31 35 37 44 40 38 37 36 34 31 28 27 24 20 18 14 12 11
38 38 36 35 35 34 33 32 31 30 29 29 28 28 30 28 28 26 25 29 34 34 34 32 30 30 33 35 38 41 39 34 35 33 29 26 24 22 21 19 15 12 9
36 36 35 33 33 33 32 32 31 33 33 32 32 31 27 26 28 24 24 24 27 30 26 26 27 26 28 33 36 36 34 29 27 25 26 27 24 22 18 16 13 12 9
34 33 32 33 33 33 33 34 35 40 41 43 47 47 45 47 40 34 29 29 30 28 28 26 24 27 29 31 31 32 32 34 30 27 26 26 25 23 21 18 14 14 11
32 32 32 32 31 31 31 30 25 32 36 39 39 42 46 47 45 34 32 30 29 29 27 25 23 26 27 29 27 31 33 35 36 33 31 29 26 22 22 18 14 11 8
34 35 33 31 30 30 30 30 30 26 20 27 32 31 34 32 27 29 32 27 24 29 28 24 23 24 26 26 26 25 27 29 31 30 29 28 26 24 20 18 15 13 9
34 32 32 32 31 32 31 31 30 28 26 27 28 30 29 20 24 27 29 25 20 21 25 24 23 23 24 25 27 26 29 28 28 28 27 27 24 22 18 16 14 12 10
30 31 33 31 30 29 28 26 25 24 23 22 23 24 21 17 17 18 22 22 19 17 21 22 21 22 26 24 25 28 27 27 27 26 25 26 26 22 17 16 12 10 9
29 30 30 29 27 27 26 24 23 22 21 21 23 23 19 19 17 16 11 18 15 11 18 23 25 28 25 24 25 26 28 27 27 27 27 26 26 22 16 13 11 11 7
26 26 26 25 26 25 23 21 20 20 20 20 19 18 19 17 15 14 8 9 14 19 22 28 30 30 31 31 29 28 27 28 28 32 30 29 25 19 17 13 11 9 7
23 24 23 22 21 22 19 17 13 15 14 14 13 12 9 5 5 7 13 17 22 25 29 30 29 27 27 28 27 29 31 32 35 34 31 28 24 19 18 13 11 8 7
22 21 20 19 19 20 19 18 16 15 14 13 13 11 11 10 10 10 14 16 19 20 22 26 26 27 28 27 27 29 32 33 31 28 27 26 22 19 16 13 12 10 8
20 20 19 18 17 18 18 18 18 17 15 14 13 12 12 12 13 12 14 15 18 19 20 22 24 26 28 30 29 27 26 26 26 25 24 22 19 17 16 13 10 8 10
19 19 19 18 18 17 17 17 18 18 17 16 15 15 14 15 15 17 19 21 23 25 27 29 29 30 29 27 26 25 25 24 24 22 20 18 16 14 12 10 10 10 10

GFSGL_925_spd_009.txt.gz
Wind_Speed
18 17 18 19 19 20 22 22 27 26 23 17 17 16 17 21 22 27 29 29 32 32 33 35 37 37 33 36 37 33 31 21 5 4 22 22 29 30 28 26 21 18 16
15 15 17 17 21 22 27 29 29 27 29 27 22 16 15 20 22 26 27 30 32 31 33 33 32 32 35 34 37 35 33 33 18 10 19 21 26 31 29 25 23 21 19
15 16 16 16 18 21 26 29 30 31 31 28 28 26 18 15 21 25 26 29 31 34 33 34 34 35 37 35 35 34 33 30 27 17 12 20 19 27 24 21 20 21 21
15 16 17 17 17 17 22 28 32 32 30 31 31 29 26 21 19 23 27 28 31 33 34 35 36 39 41 39 36 38 37 35 32 21 16 19 20 22 26 23 20 22 20
18 22 21 21 23 26 26 26 26 30 32 32 31 34 33 27 21 21 24 28 30 32 34 36 39 41 43 45 44 38 36 35 30 28 18 15 20 16 26 21 19 19 21
22 26 29 31 31 29 27 28 30 29 26 25 27 28 31 29 25 22 21 27 30 32 34 34 38 41 45 47 50 48 50 45 36 32 29 25 26 27 28 26 22 13 8
21 23 26 29 27 27 30 34 35 31 30 28 29 28 29 30 28 26 25 27 30 33 34 34 34 38 40 42 45 43 47 52 53 47 39 34 29 37 33 27 28 25 12
22 24 25 24 27 28 29 29 31 31 32 33 34 33 34 35 31 30 30 30 32 34 36 37 36 37 37 37 37 39 46 45 48 43 45 38 34 37 40 38 35 25 14
21 24 26 27 30 30 32 33 34 33 33 36 38 40 36 39 35 34 30 30 31 35 37 37 36 37 38 36 38 39 40 42 38 42 37 37 36 34 38 33 29 24 8
23 25 27 30 31 33 34 37 37 35 37 37 39 40 42 45 43 39 35 32 32 33 32 34 37 42 38 37 42 38 38 39 31 30 28 25 27 34 36 39 36 27 10
27 28 29 29 31 34 37 36 36 37 38 41 40 42 42 44 48 44 41 37 35 33 31 31 32 34 40 41 42 42 46 34 34 34 31 31 31 34 34 35 38 36 23
32 32 32 32 31 32 34 37 36 36 38 39 38 40 39 41 42 43 43 42 42 36 34 32 31 31 34 39 42 44 40 37 34 37 35 33 33 34 33 32 31 30 23
34 34 33 34 33 32 32 33 33 32 32 33 32 33 37 36 36 39 41 41 40 39 39 36 32 30 32 36 42 43 42 39 34 35 34 34 34 33 31 32 29 26 21
33 33 33 33 34 33 32 31 31 29 29 29 30 30 32 33 33 32 30 29 30 34 37 36 34 31 32 32 35 41 40 39 35 36 32 30 30 33 33 33 31 27 23
31 32 33 32 32 32 32 31 32 33 33 33 33 35 34 34 34 38 39 31 22 25 25 27 26 28 25 28 29 31 36 35 33 32 29 31 32 34 30 32 29 27 15
31 31 30 32 32 31 32 33 33 38 39 41 43 44 42 48 48 47 45 48 44 36 23 23 20 24 25 27 27 29 33 33 32 29 27 30 30 32 30 30 29 26 21
31 33 32 32 32 32 31 30 28 35 38 39 40 40 41 44 45 44 44 44 42 42 31 23 21 23 24 26 27 29 29 24 29 30 30 31 31 31 33 30 28 26 21
31 33 32 31 31 31 31 31 31 29 26 33 35 35 35 37 37 39 39 37 34 39 27 22 19 22 23 23 23 25 23 27 27 29 32 31 30 29 28 26 25 24 21
30 29 29 30 31 33 33 32 30 29 28 29 33 34 30 31 31 35 34 24 12 31 25 21 19 22 22 22 20 22 28 30 32 30 29 28 28 29 25 24 23 22 21
27 28 31 31 30 29 29 28 28 26 25 25 25 27 31 28 24 19 21 20 18 16 15 13 19 19 20 22 25 25 25 27 27 27 27 28 28 28 25 25 23 22 18
27 28 28 28 27 28 28 26 27 25 20 22 25 29 31 28 20 19 22 21 16 14 8 13 16 20 26 28 27 26 26 26 26 26 27 28 29 27 26 25 24 22 21
25 25 25 26 27 26 26 25 23 23 21 21 21 21 24 20 19 17 17 13 15 15 18 23 22 23 24 27 28 27 27 27 27 29 27 28 26 27 25 24 22 20 19
22 24 25 25 25 26 25 23 21 21 21 22 21 21 20 18 17 17 18 17 14 14 13 15 19 21 22 23 25 28 28 28 30 32 33 31 29 27 25 23 21 19 16
21 22 23 24 24 24 23 23 22 22 21 20 21 20 19 18 17 17 18 16 12 12 11 13 15 18 20 21 22 23 26 28 30 32 35 33 30 30 26 23 21 18 16
20 21 22 22 22 22 23 23 22 22 21 20 20 21 20 19 19 19 18 17 16 16 15 14 15 15 16 18 20 20 24 29 32 33 33 32 31 28 25 22 20 16 13
19 20 20 21 21 21 21 21 22 22 22 21 20 21 21 20 20 20 20 20 21 22 21 20 17 18 19 19 19 23 27 29 29 28 27 26 25 23 21 19 16 13 10

GFSGL_925_spd_015.txt.gz
Wind_Speed
13 14 15 16 18 18 20 22 25 25 27 28 26 26 26 24 23 23 23 23 21 22 24 28 31 31 36 39 41 43 41 41 20 25 30 36 32 41 44 44 41 39 38
9 11 14 15 19 20 23 24 26 28 28 28 29 29 29 28 27 27 26 25 25 24 24 27 29 31 34 37 39 37 35 35 34 27 29 33 39 40 44 46 46 43 41
8 10 15 18 21 22 24 25 26 26 28 30 30 32 33 34 34 33 31 30 28 27 27 27 30 30 33 31 34 37 31 31 37 33 27 28 37 36 40 41 45 45 42
10 13 16 22 27 27 29 30 31 32 34 35 36 36 36 36 37 38 36 35 34 35 33 32 31 30 33 32 30 34 32 31 28 32 29 27 29 30 37 32 29 41 45
14 17 19 25 30 30 32 34 36 37 39 41 41 41 39 37 32 30 32 32 33 35 35 35 36 35 34 34 32 28 28 29 28 29 29 24 22 19 34 28 32 30 35
12 16 20 28 29 31 34 37 36 33 33 33 34 35 37 36 34 34 33 34 33 34 37 36 35 36 39 38 37 39 34 30 31 30 30 28 31 29 31 32 29 17 8
14 19 24 24 27 29 31 32 31 33 33 34 34 33 36 38 38 37 37 36 35 37 38 38 38 36 35 38 38 36 39 43 44 38 37 39 30 33 29 31 36 34 27
18 20 22 23 23 27 32 32 33 33 34 35 36 35 37 42 40 39 39 39 38 39 38 38 38 40 40 37 35 36 38 42 46 47 46 47 39 34 43 42 38 34 25
18 19 18 23 29 33 33 31 31 31 33 35 36 36 36 42 38 39 39 38 39 42 42 42 42 43 42 40 39 38 37 40 39 44 50 49 44 38 39 37 31 26 15
12 17 22 24 26 28 29 31 31 31 33 33 35 33 35 39 35 35 34 34 36 37 41 42 44 46 46 44 43 41 37 42 34 35 40 47 50 43 39 45 41 32 29
19 21 21 23 26 28 30 29 31 32 32 33 34 33 32 32 33 31 30 32 32 35 36 37 37 39 42 44 45 43 45 42 35 36 36 36 39 43 43 43 45 44 37
20 22 24 26 26 26 29 31 28 29 31 31 31 31 29 29 29 31 32 33 36 38 38 38 38 39 42 45 47 47 47 46 39 32 31 32 33 36 42 44 45 44 41
22 25 26 26 25 25 27 27 27 27 27 28 27 29 30 31 32 34 35 36 36 38 39 40 42 45 47 47 42 49 46 38 37 33 32 32 34 34 32 33 37 42 37
24 26 26 25 27 24 23 24 25 27 26 26 28 30 32 31 30 30 32 36 40 41 42 43 40 38 40 42 41 42 41 36 32 33 30 31 29 28 29 30 27 28 26
24 25 24 21 23 24 22 25 26 28 29 32 32 33 34 33 33 39 41 39 37 35 37 34 31 28 28 28 33 31 37 36 32 29 28 26 27 26 28 28 29 25 24
23 20 23 23 23 23 24 27 27 28 30 33 35 36 38 39 43 41 43 43 43 41 34 28 28 27 24 25 27 28 21 23 27 29 28 27 26 27 27 26 28 27 26
21 24 24 23 22 23 25 26 26 34 32 31 32 34 35 39 40 40 40 41 43 41 27 26 25 24 24 24 26 26 20 25 27 26 26 25 27 27 28 25 27 24 22
22 23 23 23 23 23 24 27 27 26 27 36 37 34 34 36 37 38 38 37 29 30 27 26 24 23 25 25 26 25 23 20 23 25 24 26 28 27 24 25 27 27 25
20 21 21 23 23 22 25 26 24 25 26 29 32 33 31 36 35 33 28 23 25 27 27 26 26 28 27 26 27 24 24 21 21 21 20 23 25 26 26 27 26 28 26
19 20 19 21 22 21 22 23 23 23 25 26 28 29 34 32 29 31 29 27 26 28 29 31 26 24 24 25 25 24 23 21 21 22 20 22 25 27 25 24 25 24 24
16 19 20 20 19 20 20 21 21 21 23 25 26 29 32 29 27 27 28 28 28 29 30 30 28 15 12 17 21 19 19 17 18 18 17 19 21 21 22 23 24 24 22
16 15 18 20 20 19 20 21 20 20 21 24 27 28 29 25 25 26 27 27 28 28 28 28 27 26 21 14 8 8 11 13 15 17 18 18 19 20 22 22 21 22 23
10 13 16 17 18 20 20 21 20 20 21 23 24 26 27 26 26 26 27 28 28 29 30 29 29 27 22 17 12 4 4 8 12 18 20 20 21 22 23 23 23 22 22
9 10 12 14 16 18 20 21 21 21 21 21 22 23 24 26 26 27 28 28 28 29 30 30 29 27 24 20 16 11 5 3 9 15 20 22 21 21 21 20 20 19 21
7 8 10 12 14 16 18 19 20 21 21 20 21 22 24 24 25 27 29 29 29 29 30 29 29 27 25 22 18 14 9 5 7 12 16 19 21 21 20 19 22 21 21
6 7 9 11 12 13 15 17 19 19 20 21 22 23 24 25 26 26 27 29 29 29 28 28 28 28 27 26 23 18 12 8 8 10 14 19 23 22 22 21 22 22 22

GFSGL_925_spd_021.txt.gz
Wind_Speed
10 10 9 9 10 11 13 14 15 17 19 21 23 25 28 30 31 32 32 32 33 32 32 30 31 28 28 26 26 25 25 25 18 28 31 33 33 35 38 41 39 40 42
8 6 4 4 7 10 13 15 17 19 20 23 25 28 30 31 33 33 34 35 33 34 34 34 35 33 33 32 31 30 31 30 26 22 29 29 33 35 37 39 42 43 43
8 5 2 3 8 12 16 20 22 24 26 29 31 33 34 34 33 33 32 32 33 31 30 30 32 30 30 28 28 29 28 28 28 26 29 28 32 34 36 38 40 42 44
9 5 2 5 10 14 18 22 24 25 29 32 34 35 35 33 30 25 22 25 27 29 32 32 32 31 30 29 28 28 28 28 27 28 27 28 27 30 32 30 29 37 41
10 6 4 6 10 15 20 24 25 28 31 34 36 38 38 35 23 25 27 29 30 32 32 32 31 31 31 31 30 30 29 30 28 27 28 26 25 20 24 24 29 26 35
13 10 7 9 14 18 22 25 28 31 33 34 36 37 38 31 27 29 29 31 32 32 33 32 31 32 31 32 33 33 33 34 33 32 31 28 31 24 26 27 26 19 9
15 10 9 13 16 19 21 24 28 30 32 34 35 34 36 36 27 29 30 32 33 32 32 32 32 30 30 31 32 34 35 36 38 39 37 37 36 32 27 26 29 28 31
13 11 12 15 17 20 23 25 27 29 31 33 35 35 34 31 29 31 31 32 31 31 30 30 31 31 29 30 31 32 33 35 34 36 42 42 39 39 34 34 31 36 35
12 12 13 16 18 20 23 24 26 28 31 33 30 32 33 37 29 29 30 30 29 30 29 29 28 30 30 29 32 32 33 33 30 35 41 46 51 50 44 37 34 27 22
11 11 14 16 17 19 20 22 24 25 29 31 32 31 32 35 30 26 27 28 29 30 29 29 30 32 32 31 33 32 34 32 33 34 35 39 41 46 47 46 43 31 28
13 14 15 14 15 16 19 20 23 26 28 30 32 31 31 30 31 26 26 29 29 31 30 29 29 33 35 35 34 35 35 38 38 37 37 39 39 39 41 42 44 43 34
15 15 14 14 15 17 19 20 21 24 26 28 28 30 26 29 29 27 27 29 32 34 33 34 35 37 38 38 39 41 43 43 38 31 32 31 32 34 35 40 42 41 43
14 13 13 14 14 15 18 21 23 23 23 22 20 23 27 27 30 26 28 31 33 36 36 37 43 44 45 44 42 41 41 38 36 34 34 36 37 40 37 40 42 42 40
14 13 12 14 14 14 16 18 21 22 23 19 20 24 26 28 27 27 32 34 32 31 31 37 38 39 40 43 42 41 39 37 37 36 34 37 38 38 34 41 39 34 32
13 12 12 12 13 15 16 17 19 22 19 24 24 25 27 28 29 34 36 36 34 35 39 30 31 30 31 32 33 33 34 34 33 36 35 34 34 33 37 42 40 35 28
14 13 12 12 13 14 16 22 18 18 19 20 23 23 26 28 30 32 32 34 35 34 30 25 25 24 26 29 30 31 32 30 31 31 29 31 32 32 33 36 38 35 25
14 13 12 12 13 13 14 17 22 25 19 14 13 18 22 25 27 30 31 30 28 26 20 22 23 24 27 29 30 31 32 31 25 25 27 30 33 34 40 33 33 20 23
14 13 13 12 13 13 14 15 16 18 22 31 23 20 20 22 24 27 24 25 29 24 19 22 25 26 28 29 31 31 35 26 22 24 27 29 31 33 17 23 21 23 24
15 14 13 12 12 12 13 14 14 16 17 21 28 28 25 24 23 21 20 21 21 23 24 25 25 27 29 30 31 32 33 27 25 24 25 26 27 25 20 16 19 20 16
15 13 12 13 12 11 11 12 13 14 17 19 20 23 26 25 32 30 28 25 22 22 24 25 28 28 28 29 30 30 31 30 26 24 25 26 26 24 20 16 14 16 18
15 14 13 13 13 11 11 11 12 14 16 18 20 21 18 21 23 25 26 26 25 26 26 26 29 29 29 29 29 29 28 28 27 25 23 21 22 19 19 17 16 16 14
15 15 14 14 12 12 11 11 11 13 14 16 19 19 16 18 20 22 24 26 27 26 27 28 29 30 30 30 30 29 27 27 28 28 26 23 19 15 12 10 11 11 13
15 15 14 14 12 11 11 10 10 11 12 14 16 17 19 20 21 22 23 25 27 28 28 28 29 30 31 32 30 28 27 27 28 25 24 19 14 9 3 4 9 12 13
16 15 15 13 11 11 11 11 11 11 12 14 15 16 18 20 22 23 23 25 26 27 27 28 28 29 31 32 32 31 28 28 24 22 18 14 10 7 5 7 9 13 15
14 14 14 14 13 12 12 13 13 14 15 15 16 17 19 20 22 23 24 25 26 27 27 27 28 29 29 30 31 33 29 28 23 20 15 11 9 8 8 10 12 14 15
13 14 14 14 14 14 14 15 15 16 17 18 18 18 19 20 21 22 23 24 26 27 26 26 27 26 26 26 28 30 28 26 24 19 14 11 11 11 12 14 15 17 17

GFSGL_925_spd_024.txt.gz
Wind_Speed
11 11 10 9 8 8 8 8 9 10 11 13 16 19 22 24 25 26 27 28 28 30 32 31 33 31 31 30 32 31 30 24 18 28 34 38 40 37 35 33 33 36 38
12 11 9 7 5 3 4 7 9 11 13 16 20 24 26 28 29 30 30 29 30 32 33 34 32 29 30 28 29 30 28 27 26 25 28 34 36 39 37 34 34 33 36
14 12 9 6 3 1 5 9 13 16 18 21 24 26 28 29 30 29 27 29 28 27 27 26 28 28 27 26 26 27 27 28 27 27 27 27 34 34 37 38 37 36 35
16 14 12 9 5 4 7 11 15 18 21 24 26 28 29 30 28 25 28 28 29 27 27 24 24 25 26 28 27 27 26 26 25 27 27 26 26 28 32 31 31 31 35
19 17 14 10 7 6 8 13 18 21 23 26 28 29 30 29 21 25 26 26 27 28 27 25 24 24 27 30 32 32 30 29 27 26 27 25 25 22 23 24 30 27 32
23 20 16 13 10 10 12 16 20 22 24 26 28 29 30 28 25 21 23 27 27 27 28 27 26 26 25 26 28 30 32 34 31 27 27 25 28 26 25 25 27 23 14
25 22 18 15 13 12 14 17 20 22 24 26 27 29 30 31 25 24 25 26 27 26 26 27 28 25 25 26 28 28 28 28 31 34 35 34 32 30 28 28 26 26 31
25 22 19 16 14 13 15 17 19 22 24 26 28 27 30 31 27 24 25 26 25 25 25 26 27 28 26 27 29 30 29 28 27 29 32 35 35 34 33 34 38 36 35
25 23 19 16 14 14 16 18 20 22 24 26 26 28 29 32 29 23 24 25 25 26 26 26 27 29 28 28 31 31 29 30 29 32 35 38 40 39 39 35 31 29 29
25 20 17 14 14 15 17 19 20 21 24 25 28 28 28 30 25 22 22 24 26 27 27 27 26 28 30 30 33 32 32 33 31 33 36 38 38 38 33 33 35 31 29
19 17 14 14 15 17 18 18 19 21 24 27 29 29 28 26 28 21 21 25 26 28 27 28 30 32 33 33 33 36 37 39 38 39 38 35 33 33 31 30 33 35 35
17 15 14 14 15 16 18 17 18 20 23 26 28 31 28 28 27 22 23 24 27 30 31 32 34 35 36 39 39 37 41 41 36 33 33 33 31 32 33 34 36 37 41
16 15 14 15 15 15 17 18 20 19 22 25 24 26 29 28 26 20 26 26 30 32 31 34 38 38 37 32 30 37 40 34 32 30 31 33 33 35 36 36 37 38 43
17 15 15 15 15 15 16 18 19 21 22 22 22 24 28 22 21 27 31 28 28 32 33 31 26 29 34 31 31 28 26 27 28 30 33 34 34 32 29 30 32 33 35
16 15 15 15 16 17 18 18 19 19 19 21 24 22 21 21 23 27 29 31 32 32 34 31 33 30 25 25 26 26 27 28 28 29 29 31 31 30 32 31 31 31 30
17 16 16 16 16 17 18 21 16 17 18 19 20 20 19 21 22 24 25 28 28 29 27 25 23 22 22 24 26 28 29 28 29 30 31 29 29 28 30 32 32 31 28
18 17 17 16 16 17 17 18 23 19 15 13 11 13 16 18 19 20 23 24 22 19 23 23 20 22 24 26 26 27 29 31 32 32 28 27 28 30 30 31 31 29 26
18 18 19 18 18 18 17 18 18 19 21 22 16 14 13 14 17 17 19 21 26 24 20 21 22 23 25 25 27 28 30 31 30 31 30 27 27 27 28 28 29 24 25
20 20 19 18 18 18 17 17 17 16 18 20 21 17 16 15 13 16 14 18 21 23 25 24 23 25 26 27 28 29 29 30 31 30 28 27 27 26 26 27 26 26 20
21 20 18 18 18 18 17 17 17 16 16 17 18 19 20 21 23 22 20 20 21 22 23 24 26 27 27 28 29 29 30 30 30 28 28 28 27 26 23 24 23 20 19
20 19 19 18 19 19 18 18 17 16 17 17 18 16 14 19 20 20 22 22 22 24 26 27 29 30 30 29 29 29 28 29 29 29 29 29 28 27 26 23 21 20 18
18 18 19 20 19 19 19 17 17 16 16 18 18 16 12 15 17 20 21 23 24 24 24 25 27 27 29 30 33 33 30 31 30 30 30 29 28 27 26 24 21 16 12
16 18 18 19 19 18 18 17 16 16 17 17 16 17 17 17 18 19 21 23 24 25 25 25 26 28 28 30 31 32 33 33 32 31 29 29 27 26 25 21 18 11 3
15 16 17 18 17 18 18 17 16 17 17 18 18 18 19 19 20 20 21 22 24 25 25 25 26 27 28 29 29 31 34 37 30 31 26 25 24 24 20 15 12 9 5
15 16 17 18 17 17 17 18 18 18 18 18 19 19 19 20 21 21 21 21 22 24 25 25 25 26 27 28 26 28 30 33 29 27 24 21 20 18 16 13 10 9 9
14 15 16 17 18 18 18 19 20 19 19 19 19 19 20 21 21 22 22 22 23 24 24 25 25 25 25 25 24 26 25 28 27 25 22 20 19 18 15 14 13 12 11

GFSGL_925_spd_027.txt.gz
Wind_Speed
16 15 14 13 11 9 7 7 6 6 6 8 10 12 14 16 17 19 19 19 22 24 24 23 25 25 24 22 20 19 19 18 21 28 27 35 34 30 31 34 36 37 36
17 15 13 11 9 7 6 4 3 4 5 7 10 12 14 16 18 18 17 20 21 21 21 22 22 21 23 22 21 22 22 22 24 28 27 28 33 32 30 30 34 35 37
19 17 15 13 11 9 6 3 0 3 6 9 11 14 16 17 18 17 18 20 20 21 19 19 21 21 23 23 23 24 24 25 25 27 30 26 28 30 34 31 28 28 33
21 20 18 16 13 11 8 4 2 5 8 12 14 15 17 18 17 16 19 19 20 20 19 19 20 20 22 22 24 25 25 26 27 28 28 28 26 25 29 30 32 24 25
24 24 23 19 17 14 10 6 5 6 9 12 14 16 18 18 15 18 18 19 21 22 21 20 20 21 24 24 25 25 25 25 25 27 27 26 25 21 21 23 28 29 31
27 29 26 22 20 16 12 9 8 8 10 13 15 17 19 18 19 15 17 20 20 21 22 22 22 22 21 23 24 25 26 28 28 25 26 25 29 27 27 28 30 28 17
31 30 27 25 22 19 15 12 10 11 13 15 16 18 19 20 20 18 18 19 20 20 21 22 24 22 23 24 24 25 25 25 26 29 30 29 29 28 27 28 27 30 35
29 30 28 26 24 20 15 13 12 13 14 16 17 18 20 21 21 18 18 19 20 19 19 21 24 26 24 26 28 28 28 27 28 30 31 33 31 32 31 32 34 35 35
28 30 29 28 24 19 16 14 13 14 14 16 17 19 21 22 21 18 18 19 20 21 21 21 24 28 27 27 31 30 29 30 32 34 35 36 35 33 33 33 29 26 25
27 28 27 25 22 18 15 13 14 14 16 17 19 20 21 23 20 19 17 19 22 24 25 24 24 27 30 31 32 31 33 34 36 37 37 38 38 39 37 36 34 29 28
19 20 22 21 19 16 14 13 14 14 16 18 20 20 21 20 21 21 16 19 21 25 24 26 27 29 31 32 33 35 34 37 33 29 29 29 29 30 31 33 35 34 32
17 19 20 19 16 15 14 14 14 15 17 18 21 22 21 20 21 19 17 18 22 25 27 28 31 32 34 34 32 32 35 37 33 30 30 29 29 29 30 31 32 35 37
19 20 19 18 17 16 15 15 14 15 16 18 19 22 23 22 22 19 20 21 22 25 27 31 30 27 32 33 33 29 28 24 23 23 25 27 27 29 30 29 30 34 38
21 21 19 18 16 15 14 14 15 15 16 17 18 21 24 25 20 22 24 24 23 27 20 25 32 27 24 21 24 24 22 21 22 25 27 28 29 28 29 27 29 30 30
21 20 18 16 14 13 14 14 16 16 16 16 18 23 24 21 18 20 23 24 24 21 27 29 28 25 22 21 22 22 22 22 22 23 25 27 28 27 29 26 27 29 28
20 19 17 16 15 15 15 16 15 14 13 15 18 20 21 19 21 20 21 22 22 21 22 22 23 19 18 20 22 25 24 23 23 25 26 26 28 28 28 29 26 26 28
20 17 17 16 15 15 15 16 18 16 15 15 13 14 15 18 18 18 19 19 19 16 16 20 20 19 21 21 21 22 25 27 28 25 25 26 28 29 28 27 28 27 28
15 16 16 16 16 16 16 16 16 17 16 19 13 13 14 13 15 16 15 18 19 16 17 19 22 22 22 22 24 24 26 27 27 26 27 27 26 26 27 26 26 26 27
15 16 17 17 17 17 17 17 16 17 18 20 18 17 12 11 12 10 11 13 16 18 19 21 22 23 23 24 25 26 25 27 28 28 27 27 28 26 27 27 27 29 29
15 16 17 17 17 18 17 17 17 18 18 20 20 18 17 13 14 16 15 14 15 17 20 22 23 24 25 25 26 27 27 27 27 27 27 28 28 27 27 27 27 26 26
15 15 16 18 18 20 19 18 20 19 20 20 21 17 14 16 17 19 17 16 16 18 20 22 24 25 26 26 27 26 27 28 28 28 29 29 29 27 28 26 27 26 26
16 15 16 17 17 19 20 20 21 21 21 21 21 18 14 17 18 19 20 20 19 19 20 21 23 24 25 25 27 28 29 31 31 31 29 30 28 27 26 26 25 24 23
11 12 13 16 18 18 19 20 21 21 22 21 20 19 18 18 19 20 21 21 21 21 21 21 22 23 23 24 25 26 28 32 33 33 30 30 28 26 25 24 23 21 19
11 14 15 16 17 17 19 20 19 19 20 20 19 19 19 20 20 20 21 21 22 22 21 21 21 22 23 24 24 24 24 26 30 26 28 29 28 27 24 22 20 20 17
9 11 13 15 16 17 17 17 18 18 19 19 20 20 20 19 20 20 19 19 20 22 22 21 21 22 23 23 22 21 20 20 26 21 27 24 23 23 22 20 20 18 17
10 12 13 14 15 17 18 18 19 19 19 19 20 20 20 21 21 20 19 19 21 22 22 22 22 21 22 22 20 19 18 19 24 24 23 21 21 21 20 19 18 17 16

GFSGL_925_spd_030.txt.gz
Wind_Speed
18 17 18 16 15 13 12 10 8 6 4 2 3 4 6 7 9 10 10 10 12 12 11 12 13 13 14 16 16 17 19 19 22 32 28 29 36 35 33 29 29 30 31
18 19 18 17 16 13 11 10 8 6 3 1 2 4 6 8 10 10 9 11 11 12 13 13 15 15 16 16 17 20 21 22 24 29 32 28 28 30 35 37 32 29 32
20 20 18 18 16 14 12 10 8 7 5 3 3 5 6 8 9 9 9 11 11 12 13 14 15 16 17 17 19 22 22 24 24 27 34 29 29 28 30 31 34 34 31
23 21 20 19 19 17 15 12 11 9 7 5 4 6 7 9 9 8 10 10 12 12 13 14 16 16 17 19 21 22 23 24 25 27 29 30 29 28 27 28 29 26 29
24 22 22 22 20 18 17 16 13 11 8 7 7 9 9 9 8 10 10 12 13 15 15 15 16 17 19 20 21 22 24 25 25 26 27 28 28 26 25 26 29 31 35
23 25 23 23 24 22 19 18 15 13 11 10 10 10 10 9 11 10 11 13 14 15 16 16 17 17 17 19 21 22 23 26 26 25 26 27 29 29 28 26 26 26 20
32 31 29 27 26 24 23 21 17 15 13 12 12 12 12 11 12 11 12 13 15 15 16 17 18 17 18 20 21 23 24 24 25 28 30 30 32 29 29 29 28 28 29
31 31 31 29 29 27 25 23 19 17 15 14 14 14 13 13 12 13 13 14 14 15 16 17 18 20 20 22 25 27 28 28 26 28 31 35 35 35 34 36 35 35 33
27 31 32 31 31 30 28 23 20 18 16 15 15 15 15 14 13 13 12 13 14 15 16 17 19 22 22 25 30 30 31 32 33 34 35 36 38 38 37 38 33 29 27
26 28 29 29 31 32 27 23 21 19 17 15 16 16 16 15 13 12 11 12 14 16 17 18 19 22 26 28 31 32 35 33 28 30 27 24 25 30 33 35 36 32 30
20 20 22 24 27 27 25 22 20 18 17 16 17 17 16 14 12 11 10 12 14 17 20 22 22 24 28 30 31 32 32 39 37 35 30 29 29 28 28 28 28 31 31
18 19 21 22 23 24 22 20 19 17 17 16 16 16 14 12 11 10 11 12 14 18 21 22 24 23 26 34 34 31 31 31 27 25 24 24 24 25 25 25 26 28 31
20 20 21 21 22 21 21 20 18 17 16 14 13 12 11 11 11 11 11 11 14 18 20 23 19 27 27 25 22 25 23 19 20 21 22 24 25 26 28 28 27 29 31
22 22 21 22 22 22 21 20 20 19 16 14 12 12 10 10 10 9 10 13 13 17 17 15 22 23 18 18 19 18 18 17 19 21 23 25 27 26 25 25 25 27 27
23 22 22 22 22 20 21 19 19 19 18 16 15 13 12 12 10 10 14 17 18 18 18 21 20 16 17 16 17 17 18 18 19 19 21 24 25 25 25 25 25 24 25
24 22 20 19 18 18 16 16 19 18 15 16 17 16 15 17 16 14 16 17 18 12 13 13 14 14 15 16 18 20 19 19 19 21 22 22 24 25 26 27 26 24 24
23 17 17 19 16 16 16 14 13 12 15 14 15 15 14 16 15 15 15 16 12 13 13 11 12 13 15 15 17 19 21 22 23 21 23 24 25 26 27 26 26 25 25
18 17 16 15 15 14 15 14 13 11 11 11 14 14 12 13 14 13 14 13 14 12 11 10 12 12 14 15 17 18 21 23 23 24 24 24 25 26 27 26 26 25 25
14 13 14 14 14 14 13 12 12 11 11 11 13 14 13 10 10 12 11 10 11 11 10 11 12 13 14 15 17 18 20 23 25 26 25 25 26 25 27 27 27 28 28
11 12 12 12 12 12 11 11 12 12 12 11 10 12 12 11 8 8 11 12 13 14 13 14 15 15 15 16 17 18 19 22 23 24 25 25 27 25 27 27 27 26 26
10 11 12 11 11 10 10 11 12 12 12 13 13 13 12 14 13 11 11 13 14 16 17 17 17 18 17 17 17 17 19 22 25 25 26 26 27 27 27 25 26 27 26
10 10 11 11 11 10 11 12 12 14 14 15 14 13 12 13 14 13 13 15 16 17 18 19 19 19 19 18 18 18 19 24 27 26 27 28 27 27 26 25 25 25 25
5 6 6 8 9 11 12 13 13 14 14 14 13 13 12 12 13 14 16 18 18 19 18 18 19 20 19 19 19 19 22 25 26 28 29 30 27 26 25 24 23 23 22
4 5 7 8 9 9 10 12 13 14 15 13 13 13 14 15 16 17 19 20 19 19 19 19 19 19 19 19 20 21 22 22 24 26 24 26 25 25 23 22 21 22 21
3 5 6 8 9 10 12 13 13 13 13 13 13 13 13 15 17 19 20 20 20 20 20 19 20 20 20 20 20 20 20 19 21 22 20 20 21 22 21 20 20 19 18
6 7 8 10 11 10 11 13 14 14 14 13 13 13 13 15 18 20 20 20 20 21 22 21 21 21 20 21 19 19 19 17 18 20 20 20 19 19 19 18 19 15 16

GFSGL_925_spd_033.txt.gz
Wind_Speed
15 13 15 15 14 13 13 13 12 11 9 7 5 3 3 3 5 7 8 8 9 10 10 11 11 12 12 13 14 14 15 16 19 34 28 28 31 32 34 35 35 35 30
16 15 16 16 16 14 14 13 12 10 9 6 4 2 0 3 5 7 7 8 10 10 12 12 12 12 13 13 14 16 17 19 21 28 32 29 27 31 32 35 34 33 33
17 19 18 18 17 16 16 15 13 11 9 7 5 4 3 4 6 7 8 10 10 11 12 13 14 14 16 15 16 18 18 19 20 24 34 28 29 28 31 31 32 33 29
21 21 21 20 20 18 17 16 14 12 11 9 7 5 5 6 7 8 9 11 12 13 13 14 14 14 15 16 17 17 18 19 21 24 29 29 28 29 27 28 31 28 31
23 23 22 22 21 19 19 19 17 14 12 11 9 8 8 9 9 9 11 12 13 14 14 15 15 15 18 17 18 19 19 20 21 23 27 28 26 27 24 27 29 31 31
26 25 23 23 23 24 23 21 19 17 15 13 12 11 11 11 12 13 13 14 14 14 15 15 15 16 16 16 18 19 20 22 24 24 27 27 29 30 30 28 26 26 22
28 28 27 26 28 28 26 23 22 19 17 15 14 14 14 14 15 15 13 15 15 15 15 15 16 15 15 17 18 20 21 21 25 29 32 32 34 30 32 32 29 29 31
30 29 30 31 30 28 27 26 23 20 19 18 16 16 16 16 16 16 15 16 16 16 15 16 16 17 16 18 22 25 25 26 28 31 34 37 35 36 36 38 37 38 36
26 29 31 32 31 30 31 29 25 22 20 20 19 18 18 18 18 17 14 15 15 16 15 16 16 18 18 19 25 27 28 30 29 26 27 31 35 35 31 31 28 28 28
25 26 28 29 31 31 31 30 27 24 22 20 20 20 20 21 19 17 15 14 16 15 15 15 16 18 19 22 25 25 26 30 33 33 33 34 33 32 32 31 30 28 28
19 21 22 24 25 26 27 26 27 25 22 22 22 21 22 22 20 17 15 15 15 16 16 17 17 17 20 21 24 28 27 30 30 29 29 29 27 26 25 23 23 25 26
17 19 20 21 22 23 24 25 25 24 23 23 21 21 21 21 19 16 15 15 15 18 19 19 19 19 18 24 26 22 24 25 23 21 23 24 24 25 25 25 27 30 31
20 21 21 21 21 22 23 25 24 23 22 19 18 17 16 15 17 14 15 15 16 17 19 19 20 14 19 22 18 19 18 16 17 19 21 23 23 26 29 29 29 29 30
22 22 22 22 22 22 22 23 23 22 21 20 17 16 15 14 15 13 13 12 14 16 18 19 15 15 16 16 15 14 14 15 17 19 21 25 27 27 26 25 27 28 29
21 22 22 22 23 22 24 24 26 25 24 21 20 19 15 13 13 13 12 14 15 18 17 14 16 18 14 13 13 14 15 16 17 18 21 24 25 26 26 25 25 27 26
22 21 22 21 20 20 17 18 18 18 15 17 17 18 18 16 15 16 18 17 18 16 14 16 14 12 13 13 14 15 16 16 16 19 22 22 23 25 26 27 25 25 25
21 17 16 16 13 12 12 12 11 12 15 18 19 20 20 21 19 18 18 18 16 12 13 14 14 12 13 13 14 15 18 17 19 19 20 22 24 25 26 26 26 26 26
16 12 12 10 10 9 9 9 10 10 11 12 13 15 16 17 17 17 18 17 15 10 16 14 14 14 14 14 15 16 19 20 20 20 22 23 24 25 26 26 25 26 26
12 10 11 10 9 9 9 9 10 11 12 13 14 16 17 16 16 16 16 19 17 16 16 15 15 15 16 17 18 19 20 21 22 24 23 23 24 25 26 27 27 29 28
8 8 7 6 6 7 7 8 9 10 12 13 14 15 15 15 15 14 15 16 17 18 17 16 16 17 18 19 19 20 21 22 22 22 23 24 24 25 26 27 27 27 28
5 4 5 4 5 6 6 7 9 11 13 15 16 16 17 19 17 15 16 16 17 18 17 17 17 19 19 19 19 20 20 22 23 24 24 25 24 26 28 26 27 27 27
3 3 3 4 5 6 7 7 9 12 14 15 16 16 16 19 18 17 15 16 19 19 19 19 19 21 20 19 20 21 22 23 23 24 25 26 28 28 28 25 27 26 26
2 2 2 3 4 6 8 9 10 12 14 15 16 16 16 16 16 17 18 18 20 20 20 19 20 22 21 20 20 20 21 24 23 23 25 27 29 29 25 25 25 25 24
1 1 2 3 4 5 7 8 10 12 15 17 16 17 17 17 17 18 18 19 20 20 20 20 20 21 21 20 21 21 22 22 22 23 23 25 27 27 24 25 24 24 24
1 2 3 3 5 6 7 9 10 13 14 15 16 17 17 17 18 18 18 19 19 19 20 20 21 21 21 21 22 22 22 20 20 21 20 22 26 24 23 23 23 24 22
3 3 4 5 7 8 9 11 13 14 15 15 15 16 17 17 18 18 19 19 19 20 20 21 22 22 22 22 22 22 21 20 20 19 18 21 22 23 20 20 19 18 19

GFSGL_925_spd_036.txt.gz
Wind_Speed
24 23 22 21 22 21 20 18 17 16 14 12 11 9 8 6 4 3 4 5 6 8 9 10 11 11 13 14 14 13 13 13 17 37 26 29 36 33 39 39 34 35 32
25 24 24 23 23 21 20 19 18 17 15 13 11 9 7 4 2 1 2 5 7 9 10 11 12 13 15 15 15 15 17 17 18 27 30 29 28 28 30 36 36 31 30
27 25 25 25 24 22 21 20 19 17 16 14 12 10 8 5 3 2 3 5 8 10 12 13 15 16 18 17 17 18 20 19 20 23 31 27 28 27 30 28 30 32 28
28 27 28 27 25 23 22 22 21 19 18 16 13 11 8 7 5 4 5 7 9 12 14 16 17 18 18 18 20 21 17 20 20 21 26 27 27 28 26 27 31 29 32
30 30 29 26 24 24 24 23 22 22 20 16 14 12 10 8 7 7 8 10 12 15 16 17 19 18 16 16 17 20 19 23 24 23 25 26 26 26 26 28 29 32 33
33 32 29 27 27 27 26 26 25 23 21 18 16 14 13 11 11 12 11 12 14 16 19 19 19 20 21 15 15 17 18 22 26 24 26 25 29 29 30 29 31 30 27
33 32 30 30 30 30 29 28 27 26 23 21 19 17 15 14 14 14 14 15 16 18 19 20 22 20 18 20 19 18 21 22 23 29 31 30 33 33 36 36 33 34 34
33 32 30 30 30 31 31 30 29 26 25 23 21 20 18 18 17 16 15 16 18 19 19 20 21 22 20 17 20 24 26 24 27 28 29 31 31 34 35 34 36 37 37
34 32 31 32 33 32 32 32 30 28 27 26 25 23 23 21 19 16 15 18 19 21 20 20 21 21 19 16 20 24 28 25 23 29 32 32 33 35 35 35 31 27 27
32 31 30 31 32 33 33 32 30 30 29 27 26 26 24 24 21 19 16 19 22 22 20 19 17 18 18 18 20 22 23 29 34 29 32 39 31 28 25 24 27 26 25
26 24 24 26 30 31 31 30 30 29 29 28 28 27 26 25 21 19 17 19 23 22 20 19 18 17 18 19 18 20 27 28 28 32 33 30 29 25 24 23 23 25 27
20 21 21 22 24 26 27 27 27 28 28 29 27 27 27 25 22 21 19 19 19 21 23 22 20 18 18 17 20 22 24 23 26 25 26 26 24 24 25 27 29 28 26
20 21 22 22 23 24 25 26 26 26 28 29 28 29 28 24 21 18 16 17 19 22 24 22 18 18 14 17 22 19 19 21 20 21 24 22 22 27 28 27 28 27 26
22 22 21 22 23 23 23 25 27 28 28 27 26 26 22 19 20 19 19 19 20 20 20 20 21 20 16 15 21 18 17 18 17 21 21 22 27 28 27 25 26 27 27
20 19 20 20 22 22 22 23 24 24 24 25 25 24 21 21 21 17 17 18 17 17 18 22 21 18 19 20 19 17 17 16 18 19 21 27 26 23 26 26 25 26 24
18 18 19 19 20 20 20 20 15 14 16 16 15 15 17 18 15 15 17 19 21 21 23 19 21 20 19 20 18 19 18 18 17 19 23 22 21 23 25 27 24 23 24
19 19 18 18 20 20 18 16 16 13 14 16 16 16 17 19 18 20 21 21 22 22 22 22 22 21 21 19 18 18 20 20 19 20 21 22 24 25 23 25 24 23 24
14 13 15 16 15 12 12 13 13 12 13 14 14 12 14 16 19 20 20 20 23 21 23 23 23 22 20 19 17 18 21 22 22 21 22 24 24 22 24 24 24 24 25
13 14 12 11 11 11 11 10 11 10 12 14 15 15 16 16 18 19 21 23 23 24 25 24 24 22 20 20 19 19 20 22 23 22 22 23 24 22 23 24 25 27 26
11 11 11 10 9 9 8 8 9 10 11 12 14 15 16 18 20 21 21 24 28 28 26 26 25 22 21 20 19 19 21 21 22 21 21 23 24 23 22 25 25 25 26
10 10 8 7 6 6 6 7 7 9 11 13 15 15 14 19 22 23 22 21 24 26 24 23 22 22 21 21 20 20 20 21 22 21 21 22 23 24 27 27 27 24 26
8 8 7 6 4 4 4 5 6 8 10 13 15 16 15 18 21 22 19 19 19 20 22 23 23 23 22 22 21 20 21 22 22 19 21 22 23 25 26 27 28 23 25
7 7 6 4 3 3 3 5 6 8 10 12 14 16 18 19 21 22 24 24 24 25 25 25 24 24 22 22 20 20 21 22 20 20 21 22 23 24 25 26 25 24 23
7 6 5 3 1 2 4 7 8 10 12 14 15 16 18 19 20 21 22 24 24 23 24 24 24 24 23 22 21 21 21 21 20 20 20 22 24 24 25 25 21 25 27
5 4 2 2 3 5 7 9 10 11 12 13 15 17 19 20 20 21 22 22 23 24 24 23 23 22 22 22 21 21 21 21 21 21 20 20 21 22 23 24 25 24 23
3 1 1 3 5 6 8 10 12 13 15 15 16 18 19 19 20 22 22 23 23 24 24 23 22 22 22 22 21 20 20 19 20 17 17 19 20 22 22 23 24 21 18

GFSGL_925_spd_042.txt.gz
Wind_Speed
38 38 38 40 39 37 36 34 33 31 30 28 25 23 22 21 18 16 13 12 9 8 5 3 1 1 3 5 6 7 7 8 11 20 25 29 31 36 38 38 39 38 37
39 39 39 41 39 38 37 35 34 32 30 28 26 24 23 21 19 16 14 12 10 8 6 4 3 3 6 7 8 9 10 9 12 20 25 27 33 35 37 39 38 34 33
39 40 40 41 41 40 38 37 35 33 31 29 27 26 25 23 20 18 15 13 11 8 7 5 5 7 8 9 11 12 12 12 13 18 24 23 30 30 35 30 28 31 29
40 41 42 42 42 40 38 37 36 34 33 31 29 27 25 23 20 18 17 14 12 10 9 8 8 9 10 12 13 13 14 15 15 19 21 25 23 26 22 25 33 30 35
42 43 43 41 40 39 38 38 36 35 33 31 30 28 25 24 21 21 18 17 14 13 11 11 11 12 14 14 13 15 16 16 17 20 20 20 20 22 23 28 27 34 34
42 42 41 40 39 38 38 37 36 35 33 31 31 29 28 26 24 21 19 18 16 15 15 14 14 14 15 15 14 14 14 17 19 19 18 18 23 21 23 29 27 26 31
40 41 41 40 40 39 38 37 37 36 34 33 32 30 29 26 25 23 21 20 19 18 17 17 16 16 16 17 18 17 16 17 17 18 20 21 24 22 27 24 28 28 28
37 39 41 41 40 40 39 38 36 35 35 35 34 32 29 28 25 24 22 21 20 20 20 19 19 19 18 19 20 20 20 18 17 17 19 20 22 24 25 27 27 30 32
35 38 41 40 40 42 40 37 36 36 36 37 35 33 32 29 27 25 22 23 23 24 22 22 21 22 21 19 20 23 24 23 20 17 19 21 22 24 24 25 26 21 22
34 37 39 40 41 43 39 37 37 38 37 36 35 33 31 30 27 26 23 24 26 26 25 26 26 26 22 18 20 22 27 26 22 21 19 24 28 30 23 17 18 19 20
32 33 36 40 43 40 36 36 38 36 35 35 34 33 32 32 29 28 25 25 28 29 30 31 29 25 21 19 20 24 26 23 20 19 24 29 31 29 23 19 15 17 20
29 34 37 38 38 37 36 34 34 33 34 33 32 32 33 33 31 29 28 26 27 29 32 31 29 23 18 19 21 23 23 18 20 25 29 30 28 26 23 22 25 24 23
29 31 33 33 33 32 32 32 30 30 31 32 31 33 35 34 31 28 27 27 24 27 31 31 27 21 20 21 22 20 15 20 24 25 27 27 24 23 23 26 26 26 28
27 28 28 27 29 29 29 29 29 29 31 31 32 33 32 28 25 24 27 27 26 25 25 24 25 21 23 23 24 24 24 23 22 24 24 23 22 22 25 24 23 28 27
23 23 24 25 26 26 27 27 28 28 29 30 32 29 25 25 23 19 20 22 24 24 24 28 30 32 33 31 30 28 25 24 22 23 21 19 20 22 23 22 24 25 19
19 20 22 23 24 24 24 21 20 20 20 19 17 17 15 15 12 10 12 15 16 16 20 27 30 30 29 27 26 30 28 24 22 20 19 17 19 21 21 23 23 21 21
17 19 20 21 21 21 21 21 20 11 8 8 9 10 10 9 7 10 12 14 17 19 24 19 19 20 23 24 26 27 25 21 17 17 17 16 17 19 19 22 22 20 22
14 15 17 19 19 19 19 17 16 16 16 14 10 10 10 8 4 7 10 13 17 17 18 19 19 19 19 20 22 21 20 18 16 16 17 17 17 16 18 20 21 20 20
12 12 13 13 13 12 12 11 10 10 10 10 11 11 12 13 14 10 7 13 16 19 19 20 21 22 24 24 21 19 18 17 17 16 17 16 16 15 16 18 20 20 21
9 9 9 10 11 10 10 10 10 9 8 6 5 6 7 8 8 9 10 12 14 17 18 19 19 19 19 17 17 18 18 17 17 17 17 16 15 15 16 17 19 19 22
8 10 9 10 10 10 10 9 8 6 5 5 5 6 4 8 7 10 12 13 14 16 18 19 21 21 17 13 14 16 16 17 17 18 17 16 15 17 15 16 18 20 20
10 11 11 12 12 10 8 7 6 7 6 6 6 6 4 9 8 9 10 11 12 13 14 15 17 17 17 19 20 19 19 19 19 18 16 16 16 16 16 17 18 19 20
10 11 10 9 8 9 9 8 8 7 7 6 5 5 6 7 8 10 11 12 12 13 12 12 14 15 14 16 17 18 19 19 18 17 17 17 18 18 17 18 18 20 20
7 7 8 8 8 7 7 7 7 6 5 5 5 6 7 8 10 11 12 13 14 14 13 13 14 15 16 16 17 17 17 17 17 17 18 19 20 19 19 19 20 20 20
6 7 6 6 5 5 5 5 5 5 5 6 7 9 10 11 13 14 14 15 16 16 15 15 15 16 16 16 16 17 17 17 18 18 18 19 20 20 20 20 20 20 20
4 4 5 5 5 5 5 5 6 7 8 8 10 12 14 15 16 16 16 16 18 18 18 17 17 17 17 17 17 17 18 17 17 15 14 15 17 17 17 19 19 19 18

GFSGL_925_spd_045.txt.gz
Wind_Speed
40 38 36 37 38 39 42 43 41 40 38 36 34 32 30 27 25 23 20 18 16 14 13 10 8 7 5 4 4 4 5 6 8 14 21 26 28 29 31 31 31 33 36
39 38 38 37 39 40 44 44 42 41 39 37 35 33 30 28 26 24 22 20 18 16 14 11 10 8 6 5 6 7 8 8 10 17 25 25 28 30 31 33 31 32 35
39 39 38 39 41 42 44 44 42 41 40 39 37 35 33 30 28 25 21 20 18 16 14 12 11 10 8 8 8 9 10 10 12 16 20 23 29 30 32 29 27 33 30
40 40 42 42 43 45 46 45 44 42 41 39 37 35 33 30 28 25 23 21 19 17 15 14 14 11 10 10 11 11 11 13 14 16 22 25 25 28 21 23 31 29 33
43 43 44 42 43 45 46 45 43 42 41 39 36 34 31 30 28 27 25 23 21 19 17 16 15 13 13 13 14 13 13 15 15 17 21 22 20 19 17 20 23 27 32
41 41 40 41 43 44 43 43 42 40 39 37 35 33 32 29 27 26 25 24 22 20 19 18 16 16 16 16 14 13 15 16 17 18 21 17 20 19 21 21 20 21 19
38 37 41 41 42 42 40 39 39 39 37 35 33 32 31 29 27 27 27 25 23 22 22 19 19 18 18 18 18 17 16 17 18 20 22 19 22 23 24 21 21 22 27
35 37 39 38 38 38 37 37 37 37 36 35 34 33 31 28 30 29 27 26 24 25 23 22 22 21 21 21 22 22 22 21 20 20 22 24 24 21 17 21 26 31 36
33 33 35 38 38 37 37 36 34 33 34 35 35 33 31 32 31 30 24 25 26 27 24 24 24 24 23 22 22 24 24 25 22 19 20 22 19 18 20 24 26 22 20
31 34 40 41 41 40 37 35 33 34 37 34 34 34 32 36 33 30 26 27 28 28 28 28 27 27 25 24 23 24 26 27 24 23 23 24 23 22 23 21 19 19 15
32 34 35 37 37 36 34 30 33 35 33 32 35 33 37 35 33 30 29 28 31 31 31 32 30 27 25 21 21 23 27 24 24 23 23 19 20 25 26 20 15 13 17
27 28 29 30 30 27 26 29 32 33 31 33 34 38 35 34 32 31 30 28 28 30 33 33 31 26 23 20 20 22 22 22 26 21 20 23 26 28 25 20 19 19 20
24 25 26 27 29 30 32 32 33 33 31 31 33 33 35 33 31 31 31 29 25 28 30 30 27 23 19 20 21 22 22 24 23 23 26 29 26 25 23 22 22 22 23
23 21 23 27 29 30 29 31 31 31 29 28 30 31 31 28 25 24 26 26 24 24 26 25 24 20 20 20 22 21 23 26 26 27 28 27 24 23 22 20 22 23 25
19 20 21 23 25 26 26 26 27 28 29 30 30 27 23 23 21 17 17 19 22 24 25 27 28 27 28 28 30 31 30 31 33 32 29 25 22 21 21 19 20 20 19
15 16 18 20 20 22 23 19 18 17 16 15 15 14 14 13 11 9 10 11 12 11 14 18 21 24 25 24 23 24 25 26 28 30 25 21 22 20 19 19 19 19 19
11 14 15 17 19 20 21 21 17 7 6 6 6 3 2 3 4 6 7 7 5 10 10 3 2 6 9 12 17 20 22 26 24 20 20 20 20 18 17 18 18 17 20
7 7 10 13 15 16 16 16 15 15 14 11 7 10 8 9 9 6 3 7 8 10 11 14 16 17 17 16 17 19 20 19 19 19 19 19 19 18 17 18 17 16 17
4 5 6 7 9 10 10 11 11 12 13 15 15 11 9 7 7 9 12 10 9 10 12 14 16 17 18 18 19 17 16 17 18 18 18 18 18 17 18 17 16 15 16
4 5 6 7 9 10 10 11 12 12 13 14 13 10 8 7 7 7 7 7 9 10 12 13 14 16 17 17 15 13 12 13 14 16 18 18 17 17 18 16 15 14 17
6 7 7 9 10 10 11 12 13 13 13 11 8 6 2 5 4 5 7 8 9 10 11 12 13 13 14 13 12 13 15 16 16 17 18 18 18 18 17 16 15 14 16
7 8 9 10 11 11 11 11 11 10 10 9 8 7 5 4 5 7 8 9 9 10 10 12 13 13 14 14 14 14 16 17 17 17 18 18 18 18 17 16 15 14 15
8 9 9 10 9 9 9 9 9 9 9 7 7 6 6 6 7 8 9 9 10 10 10 12 13 15 14 14 14 15 17 18 17 17 18 18 18 17 17 18 16 15 15
6 6 7 7 7 6 6 6 5 4 4 4 4 4 5 6 8 9 10 11 11 12 13 14 15 16 16 15 15 16 16 16 16 17 18 19 20 19 19 18 17 16 16
7 7 6 5 4 3 2 2 2 2 3 4 5 7 8 9 11 11 12 13 14 15 15 15 17 18 18 18 18 17 17 17 18 18 19 20 21 20 19 19 18 17 16
5 4 3 1 1 1 2 3 4 5 7 7 8 9 11 12 13 13 14 15 16 17 18 18 18 18 19 19 19 19 19 18 18 16 16 17 18 18 16 16 16 16 17

GFSGL_925_spd_048.txt.gz
Wind_Speed
41 40 39 37 37 37 38 40 41 42 44 43 40 38 36 34 32 29 27 26 23 21 18 15 13 11 10 9 7 7 8 9 9 8 12 17 21 21 23 25 26 25 28
41 41 40 38 38 38 38 41 42 45 45 44 42 39 36 34 32 30 29 26 24 22 20 17 15 14 12 11 9 9 10 10 9 12 16 19 22 24 25 28 27 28 30
40 41 40 38 39 39 39 40 42 46 46 44 41 39 37 34 32 29 27 25 23 20 19 17 16 15 15 13 12 11 12 11 11 13 17 21 24 24 27 28 29 30 32
40 41 42 42 41 40 39 40 43 46 45 43 40 38 36 33 31 29 26 24 22 19 18 17 16 16 16 14 14 13 14 12 13 16 20 24 22 22 23 26 34 29 34
39 41 44 42 41 40 39 40 43 45 44 43 40 37 35 33 31 29 26 24 22 21 19 18 18 17 16 15 15 16 16 15 16 18 21 21 22 18 17 18 20 29 29
40 41 40 42 41 41 40 41 44 45 45 43 41 38 35 33 30 28 26 24 22 23 22 21 20 20 19 18 19 19 17 16 19 19 21 19 21 19 20 18 19 15 15
38 37 41 41 40 40 39 40 43 46 45 42 40 38 35 33 30 28 26 21 27 27 25 23 22 22 20 20 20 18 17 19 20 21 23 24 23 20 21 19 12 16 22
34 36 38 39 37 38 39 40 41 43 44 42 39 36 34 31 29 28 25 23 30 28 27 25 25 25 22 23 23 23 23 24 25 24 26 29 26 21 19 14 16 27 37
30 31 35 37 35 36 36 37 38 39 39 38 38 36 33 31 30 29 22 27 30 30 29 28 28 27 25 23 24 26 26 29 25 23 22 22 21 16 11 21 23 25 23
25 28 30 32 34 36 35 36 36 36 36 34 32 30 28 34 32 30 27 29 31 32 30 30 29 28 27 26 25 26 30 32 27 25 23 22 23 24 21 18 18 20 18
23 25 27 30 31 30 32 31 32 30 28 30 27 28 31 33 32 31 28 30 34 33 33 33 31 29 28 22 21 26 29 26 25 24 26 25 22 20 17 17 15 15 17
19 22 24 26 27 27 28 26 27 26 21 20 22 26 33 34 31 33 27 30 31 32 34 33 31 28 25 23 21 23 23 23 25 27 25 25 22 20 18 16 16 17 18
19 20 21 22 23 25 23 22 21 21 24 24 26 27 30 30 31 32 30 28 26 28 29 29 27 24 21 20 20 20 20 24 25 23 25 27 25 21 18 16 18 19 20
20 20 20 20 19 19 21 23 26 27 23 21 22 24 28 31 31 28 30 27 24 25 25 22 19 17 17 17 18 18 21 24 24 26 28 29 26 23 20 18 19 19 20
17 19 20 21 23 23 24 26 26 26 26 27 30 30 27 27 25 20 19 21 23 24 24 26 25 23 24 25 26 26 26 22 22 24 25 26 26 22 21 18 17 18 17
14 16 18 20 20 21 22 17 17 17 18 19 18 18 17 15 11 11 12 12 12 11 14 16 13 13 13 13 13 14 14 14 16 18 21 22 24 21 19 17 17 18 18
12 15 15 16 18 19 21 21 17 10 10 7 5 6 7 9 8 8 7 8 9 11 13 7 8 7 8 10 12 15 17 19 20 20 20 20 20 18 17 18 18 18 17
9 9 10 13 14 16 19 20 19 19 18 15 8 8 9 10 12 12 12 11 7 6 6 7 9 11 12 13 14 15 17 17 17 17 17 18 18 18 18 20 18 17 17
9 8 7 7 7 8 11 13 14 14 16 19 18 15 14 11 11 9 9 7 7 8 9 9 10 11 12 13 14 14 15 15 15 15 16 17 17 17 18 19 18 16 14
10 9 7 6 6 7 8 10 11 13 16 17 14 13 12 10 7 4 4 5 6 7 7 8 9 10 11 12 12 12 12 12 12 13 14 15 15 16 18 18 17 16 17
11 10 9 8 8 7 6 7 8 9 11 12 10 7 6 7 6 5 4 4 4 5 6 7 8 9 10 10 10 11 13 15 15 15 16 16 15 16 16 16 16 17 16
11 11 10 11 10 10 9 9 9 9 9 8 7 7 4 3 3 3 4 5 6 7 8 9 10 10 10 11 12 13 14 15 15 15 15 15 15 15 15 15 16 16 16
11 11 12 12 10 10 9 8 7 6 6 6 5 6 5 4 5 5 6 7 9 8 9 10 11 12 12 13 14 15 16 17 15 15 16 15 15 15 15 16 17 17 17
9 9 9 9 8 8 8 7 6 5 5 4 4 5 6 6 7 8 8 9 10 11 11 12 13 14 14 14 15 16 17 17 16 16 15 16 16 16 17 17 17 17 18
8 8 8 8 7 7 7 6 5 4 4 5 6 7 8 9 10 10 11 12 13 14 13 14 15 16 17 17 17 17 17 17 17 17 17 17 18 18 18 18 18 17 17
5 5 4 4 4 5 6 7 7 8 8 8 8 9 10 11 13 13 12 13 14 15 16 15 15 16 16 17 17 17 17 17 17 16 14 15 15 15 15 15 15 16 16